Time,TemperatureF,DewpointF,PressureIn,WindDirection,WindDirectionDegrees,WindSpeedMPH,WindSpeedGustMPH,Humidity,HourlyPrecipIn,Conditions,Clouds,dailyrainin,SoftwareType,DateUTC
2013-01-04 00:06:00,30.3,18.8,30.01,West,259,1.0,1.0,62,0.00,,,0.00,Wunderground v.1.15,2013-01-04 05:06:00,
2013-01-04 00:10:00,30.0,18.5,30.01,West,259,0.0,0.0,62,0.00,,,0.00,Wunderground v.1.15,2013-01-04 05:10:00,
2013-01-04 00:15:00,29.7,19.0,30.01,West,259,0.0,0.0,64,0.00,,,0.00,Wunderground v.1.15,2013-01-04 05:15:00,
2013-01-04 00:25:00,29.4,19.4,30.01,West,259,0.0,0.0,66,0.00,,,0.00,Wunderground v.1.15,2013-01-04 05:25:00,
2013-01-04 00:30:00,29.3,19.3,30.01,West,259,0.0,0.0,66,0.00,,,0.00,Wunderground v.1.15,2013-01-04 05:30:00,
2013-01-04 00:35:00,29.3,19.7,30.01,West,259,0.0,0.0,67,0.00,,,0.00,Wunderground v.1.15,2013-01-04 05:35:00,
2013-01-04 00:40:00,29.1,20.2,30.01,West,259,0.0,0.0,69,0.00,,,0.00,Wunderground v.1.15,2013-01-04 05:40:00,
2013-01-04 00:45:00,29.0,20.1,30.01,West,259,0.0,0.0,69,0.00,,,0.00,Wunderground v.1.15,2013-01-04 05:45:00,
2013-01-04 00:55:00,28.5,19.6,30.00,West,259,0.0,0.0,69,0.00,,,0.00,Wunderground v.1.15,2013-01-04 05:55:00,
2013-01-04 01:05:00,27.9,19.4,30.01,West,259,0.0,0.0,70,0.00,,,0.00,Wunderground v.1.15,2013-01-04 06:05:00,
2013-01-04 01:15:00,27.5,19.3,30.01,West,259,0.0,0.0,71,0.00,,,0.00,Wunderground v.1.15,2013-01-04 06:15:00,
2013-01-04 01:25:00,27.3,19.1,30.01,West,259,0.0,0.0,71,0.00,,,0.00,Wunderground v.1.15,2013-01-04 06:25:00,
2013-01-04 01:35:00,27.0,19.2,30.01,West,259,0.0,0.0,72,0.00,,,0.00,Wunderground v.1.15,2013-01-04 06:35:00,
2013-01-04 01:45:00,27.0,19.5,30.01,West,259,0.0,0.0,73,0.00,,,0.00,Wunderground v.1.15,2013-01-04 06:45:00,
2013-01-04 01:55:00,27.2,19.7,30.01,West,259,0.0,0.0,73,0.00,,,0.00,Wunderground v.1.15,2013-01-04 06:55:00,
2013-01-04 02:05:00,27.3,19.8,30.01,West,259,0.0,0.0,73,0.00,,,0.00,Wunderground v.1.15,2013-01-04 07:05:00,
2013-01-04 02:15:00,27.5,19.7,30.01,West,259,0.0,1.0,72,0.00,,,0.00,Wunderground v.1.15,2013-01-04 07:15:00,
2013-01-04 02:25:00,27.5,19.7,30.01,West,259,0.0,1.0,72,0.00,,,0.00,Wunderground v.1.15,2013-01-04 07:25:00,
2013-01-04 02:35:00,27.3,19.5,30.02,West,259,0.0,0.0,72,0.00,,,0.00,Wunderground v.1.15,2013-01-04 07:35:00,
2013-01-04 02:45:00,27.2,19.4,30.02,West,259,0.0,0.0,72,0.00,,,0.00,Wunderground v.1.15,2013-01-04 07:45:00,
2013-01-04 02:55:00,26.9,19.7,30.02,West,259,0.0,0.0,74,0.00,,,0.00,Wunderground v.1.15,2013-01-04 07:55:00,
2013-01-04 03:05:00,26.9,19.7,30.02,West,259,0.0,0.0,74,0.00,,,0.00,Wunderground v.1.15,2013-01-04 08:05:00,
2013-01-04 03:15:00,27.0,19.8,30.02,West,259,0.0,0.0,74,0.00,,,0.00,Wunderground v.1.15,2013-01-04 08:15:00,
2013-01-04 03:25:00,26.7,19.5,30.01,West,259,0.0,0.0,74,0.00,,,0.00,Wunderground v.1.15,2013-01-04 08:25:00,
2013-01-04 03:35:00,26.6,19.7,30.02,West,259,0.0,0.0,75,0.00,,,0.00,Wunderground v.1.15,2013-01-04 08:35:00,
2013-01-04 03:45:00,26.4,19.5,30.02,West,259,0.0,0.0,75,0.00,,,0.00,Wunderground v.1.15,2013-01-04 08:45:00,
2013-01-04 03:55:00,26.0,19.5,30.01,West,259,0.0,0.0,76,0.00,,,0.00,Wunderground v.1.15,2013-01-04 08:55:00,
2013-01-04 04:05:00,25.7,19.2,30.01,West,259,0.0,0.0,76,0.00,,,0.00,Wunderground v.1.15,2013-01-04 09:05:00,
2013-01-04 04:15:00,25.4,19.5,30.01,West,259,0.0,0.0,78,0.00,,,0.00,Wunderground v.1.15,2013-01-04 09:15:00,
2013-01-04 04:25:00,25.1,19.2,30.01,West,259,0.0,0.0,78,0.00,,,0.00,Wunderground v.1.15,2013-01-04 09:25:00,
2013-01-04 04:35:00,25.0,19.4,30.01,West,259,0.0,0.0,79,0.00,,,0.00,Wunderground v.1.15,2013-01-04 09:35:00,
2013-01-04 04:45:00,24.8,19.5,30.01,West,259,0.0,0.0,80,0.00,,,0.00,Wunderground v.1.15,2013-01-04 09:45:00,
2013-01-04 04:55:00,24.8,19.8,30.01,West,259,0.0,1.0,81,0.00,,,0.00,Wunderground v.1.15,2013-01-04 09:55:00,
2013-01-04 05:05:00,25.3,20.3,30.02,West,259,0.0,1.0,81,0.00,,,0.00,Wunderground v.1.15,2013-01-04 10:05:00,
2013-01-04 05:15:00,26.1,21.4,30.02,West,259,1.0,1.0,82,0.00,,,0.00,Wunderground v.1.15,2013-01-04 10:15:00,
2013-01-04 05:25:00,28.1,22.7,30.02,WSW,257,2.0,2.0,80,0.00,,,0.00,Wunderground v.1.15,2013-01-04 10:25:00,
2013-01-04 05:35:00,29.1,22.8,30.02,WSW,257,1.0,1.0,77,0.00,,,0.00,Wunderground v.1.15,2013-01-04 10:35:00,
2013-01-04 05:45:00,29.8,22.8,30.02,WSW,257,1.0,2.0,75,0.00,,,0.00,Wunderground v.1.15,2013-01-04 10:45:00,
2013-01-04 05:55:00,30.3,23.0,30.02,SSW,200,1.0,1.0,74,0.00,,,0.00,Wunderground v.1.15,2013-01-04 10:55:00,
2013-01-04 06:05:00,31.2,22.9,30.02,SSW,200,1.0,2.0,71,0.00,,,0.00,Wunderground v.1.15,2013-01-04 11:05:00,
2013-01-04 06:15:00,31.3,22.6,30.02,SSW,200,1.0,1.0,70,0.00,,,0.00,Wunderground v.1.15,2013-01-04 11:15:00,
2013-01-04 06:25:00,31.2,22.5,30.02,SSW,200,1.0,2.0,70,0.00,,,0.00,Wunderground v.1.15,2013-01-04 11:25:00,
2013-01-04 06:35:00,31.5,22.5,30.02,SW,233,2.0,3.0,69,0.00,,,0.00,Wunderground v.1.15,2013-01-04 11:35:00,
2013-01-04 06:45:00,31.6,22.2,30.02,WSW,242,2.0,2.0,68,0.00,,,0.00,Wunderground v.1.15,2013-01-04 11:45:00,
2013-01-04 06:55:00,31.8,22.4,30.02,WSW,242,1.0,2.0,68,0.00,,,0.00,Wunderground v.1.15,2013-01-04 11:55:00,
2013-01-04 07:05:00,31.9,22.2,30.02,WSW,253,2.0,3.0,67,0.00,,,0.00,Wunderground v.1.15,2013-01-04 12:05:00,
2013-01-04 07:15:00,32.1,22.4,30.02,South,172,2.0,4.0,67,0.00,,,0.00,Wunderground v.1.15,2013-01-04 12:15:00,
2013-01-04 07:25:00,32.2,22.5,30.02,SW,217,1.0,3.0,67,0.00,,,0.00,Wunderground v.1.15,2013-01-04 12:25:00,
2013-01-04 07:35:00,32.4,22.7,30.02,SW,229,2.0,2.0,67,0.00,,,0.00,Wunderground v.1.15,2013-01-04 12:35:00,
2013-01-04 07:45:00,32.2,22.8,30.02,SW,229,1.0,1.0,68,0.00,,,0.00,Wunderground v.1.15,2013-01-04 12:45:00,
2013-01-04 07:55:00,32.4,23.0,30.02,SW,229,1.0,2.0,68,0.00,,,0.00,Wunderground v.1.15,2013-01-04 12:55:00,
2013-01-04 08:06:00,32.7,23.3,30.02,SW,228,2.0,2.0,68,0.00,,,0.00,Wunderground v.1.15,2013-01-04 13:06:00,
2013-01-04 08:15:00,33.1,23.0,30.02,West,265,2.0,2.0,66,0.00,,,0.00,Wunderground v.1.15,2013-01-04 13:15:00,
2013-01-04 08:25:00,33.5,23.0,30.03,SW,232,3.0,4.0,65,0.00,,,0.00,Wunderground v.1.15,2013-01-04 13:25:00,
2013-01-04 08:35:00,33.5,23.0,30.03,SW,215,2.0,2.0,65,0.00,,,0.00,Wunderground v.1.15,2013-01-04 13:35:00,
2013-01-04 08:45:00,33.7,23.2,30.03,WSW,257,2.0,3.0,65,0.00,,,0.00,Wunderground v.1.15,2013-01-04 13:45:00,
2013-01-04 08:55:00,33.7,23.2,30.03,WSW,249,2.0,2.0,65,0.00,,,0.00,Wunderground v.1.15,2013-01-04 13:55:00,
2013-01-04 09:05:00,33.7,23.5,30.03,SW,226,2.0,3.0,66,0.00,,,0.00,Wunderground v.1.15,2013-01-04 14:05:00,
2013-01-04 09:15:00,33.8,23.3,30.03,SW,231,2.0,4.0,65,0.00,,,0.00,Wunderground v.1.15,2013-01-04 14:15:00,
2013-01-04 09:25:00,34.0,23.5,30.04,SW,232,2.0,2.0,65,0.00,,,0.00,Wunderground v.1.15,2013-01-04 14:25:00,
2013-01-04 09:35:00,34.1,23.6,30.03,West,280,2.0,2.0,65,0.00,,,0.00,Wunderground v.1.15,2013-01-04 14:35:00,
2013-01-04 09:45:00,34.3,23.7,30.03,West,273,2.0,4.0,65,0.00,,,0.00,Wunderground v.1.15,2013-01-04 14:45:00,
2013-01-04 09:55:00,34.4,23.8,30.04,WSW,240,2.0,3.0,65,0.00,,,0.00,Wunderground v.1.15,2013-01-04 14:55:00,
2013-01-04 10:05:00,34.7,23.8,30.03,West,261,3.0,4.0,64,0.00,,,0.00,Wunderground v.1.15,2013-01-04 15:05:00,
2013-01-04 10:15:00,35.0,23.7,30.03,WNW,290,3.0,3.0,63,0.00,,,0.00,Wunderground v.1.15,2013-01-04 15:15:00,
2013-01-04 10:25:00,36.3,24.5,30.03,WSW,257,2.0,5.0,62,0.00,,,0.00,Wunderground v.1.15,2013-01-04 15:25:00,
2013-01-04 10:35:00,37.0,24.4,30.02,WNW,286,4.0,6.0,60,0.00,,,0.00,Wunderground v.1.15,2013-01-04 15:35:00,
2013-01-04 10:45:00,37.0,24.4,30.02,West,280,3.0,4.0,60,0.00,,,0.00,Wunderground v.1.15,2013-01-04 15:45:00,
2013-01-04 10:55:00,37.9,23.6,30.02,West,265,2.0,2.0,56,0.00,,,0.00,Wunderground v.1.15,2013-01-04 15:55:00,
2013-01-04 11:05:00,36.8,23.4,30.00,West,276,3.0,3.0,58,0.00,,,0.00,Wunderground v.1.15,2013-01-04 16:05:00,
2013-01-04 11:15:00,36.3,22.5,30.00,South,188,3.0,3.0,57,0.00,,,0.00,Wunderground v.1.15,2013-01-04 16:15:00,
2013-01-04 11:25:00,36.3,22.5,29.99,West,279,3.0,3.0,57,0.00,,,0.00,Wunderground v.1.15,2013-01-04 16:25:00,
2013-01-04 11:35:00,36.6,21.9,29.99,SSW,192,5.0,7.0,55,0.00,,,0.00,Wunderground v.1.15,2013-01-04 16:35:00,
2013-01-04 11:40:00,36.6,21.9,29.99,West,276,4.0,6.0,55,0.00,,,0.00,Wunderground v.1.15,2013-01-04 16:40:00,
2013-01-04 11:45:00,36.3,21.7,29.99,WNW,286,4.0,6.0,55,0.00,,,0.00,Wunderground v.1.15,2013-01-04 16:45:00,
2013-01-04 11:55:00,36.2,22.0,29.97,WNW,287,3.0,5.0,56,0.00,,,0.00,Wunderground v.1.15,2013-01-04 16:55:00,
2013-01-04 12:05:00,36.3,22.1,29.97,SW,228,4.0,5.0,56,0.00,,,0.00,Wunderground v.1.15,2013-01-04 17:05:00,
2013-01-04 12:15:00,37.5,23.2,29.97,WSW,241,4.0,9.0,56,0.00,,,0.00,Wunderground v.1.15,2013-01-04 17:15:00,
2013-01-04 12:25:00,36.9,21.8,29.96,SW,224,5.0,5.0,54,0.00,,,0.00,Wunderground v.1.15,2013-01-04 17:25:00,
2013-01-04 12:35:00,36.9,22.2,29.95,West,264,4.0,8.0,55,0.00,,,0.00,Wunderground v.1.15,2013-01-04 17:35:00,
2013-01-04 12:45:00,36.5,21.8,29.95,SW,231,5.0,5.0,55,0.00,,,0.00,Wunderground v.1.15,2013-01-04 17:45:00,
2013-01-04 12:55:00,35.9,21.3,29.95,SW,236,3.0,4.0,55,0.00,,,0.00,Wunderground v.1.15,2013-01-04 17:55:00,
2013-01-04 13:05:00,36.3,21.2,29.94,SE,144,4.0,4.0,54,0.00,,,0.00,Wunderground v.1.15,2013-01-04 18:05:00,
2013-01-04 13:15:00,36.5,21.8,29.94,WSW,257,3.0,3.0,55,0.00,,,0.00,Wunderground v.1.15,2013-01-04 18:15:00,
2013-01-04 13:25:00,38.0,21.5,29.93,South,188,3.0,4.0,51,0.00,,,0.00,Wunderground v.1.15,2013-01-04 18:25:00,
2013-01-04 13:35:00,38.6,21.5,29.92,WSW,248,4.0,6.0,50,0.00,,,0.00,Wunderground v.1.15,2013-01-04 18:35:00,
2013-01-04 13:45:00,38.3,21.3,29.92,WNW,302,4.0,6.0,50,0.00,,,0.00,Wunderground v.1.15,2013-01-04 18:45:00,
2013-01-04 13:55:00,39.1,21.5,29.92,WNW,296,4.0,4.0,49,0.00,,,0.00,Wunderground v.1.15,2013-01-04 18:55:00,
2013-01-04 14:05:00,39.2,21.6,29.92,NW,316,2.0,3.0,49,0.00,,,0.00,Wunderground v.1.15,2013-01-04 19:05:00,
2013-01-04 14:15:00,39.1,21.5,29.92,WNW,298,2.0,4.0,49,0.00,,,0.00,Wunderground v.1.15,2013-01-04 19:15:00,
2013-01-04 14:20:00,39.1,21.5,29.91,WSW,249,2.0,3.0,49,0.00,,,0.00,Wunderground v.1.15,2013-01-04 19:20:00,
2013-01-04 14:30:00,38.3,20.8,29.91,NNW,344,4.0,4.0,49,0.00,,,0.00,Wunderground v.1.15,2013-01-04 19:30:00,
2013-01-04 14:35:00,38.3,21.3,29.91,WNW,286,3.0,4.0,50,0.00,,,0.00,Wunderground v.1.15,2013-01-04 19:35:00,
2013-01-04 14:45:00,38.3,20.8,29.91,WSW,252,3.0,5.0,49,0.00,,,0.00,Wunderground v.1.15,2013-01-04 19:45:00,
2013-01-04 14:55:00,37.9,20.9,29.91,WNW,284,4.0,8.0,50,0.00,,,0.00,Wunderground v.1.15,2013-01-04 19:55:00,
2013-01-04 15:05:00,37.9,20.9,29.91,WSW,254,4.0,6.0,50,0.00,,,0.00,Wunderground v.1.15,2013-01-04 20:05:00,
2013-01-04 15:15:00,37.8,20.8,29.91,WSW,240,4.0,6.0,50,0.00,,,0.00,Wunderground v.1.15,2013-01-04 20:15:00,
2013-01-04 15:25:00,37.5,21.0,29.90,West,263,4.0,5.0,51,0.00,,,0.00,Wunderground v.1.15,2013-01-04 20:25:00,
2013-01-04 15:35:00,37.3,21.3,29.91,West,261,3.0,4.0,52,0.00,,,0.00,Wunderground v.1.15,2013-01-04 20:35:00,
2013-01-04 15:45:00,37.0,21.4,29.91,WSW,249,3.0,3.0,53,0.00,,,0.00,Wunderground v.1.15,2013-01-04 20:45:00,
2013-01-04 15:55:00,36.8,21.3,29.90,WNW,300,2.0,4.0,53,0.00,,,0.00,Wunderground v.1.15,2013-01-04 20:55:00,
2013-01-04 16:05:00,36.5,21.4,29.90,WSW,251,2.0,4.0,54,0.00,,,0.00,Wunderground v.1.15,2013-01-04 21:05:00,
2013-01-04 16:15:00,36.2,21.1,29.90,SW,219,3.0,5.0,54,0.00,,,0.00,Wunderground v.1.15,2013-01-04 21:15:00,
2013-01-04 16:20:00,36.2,21.6,29.90,NW,312,3.0,5.0,55,0.00,,,0.00,Wunderground v.1.15,2013-01-04 21:20:00,
2013-01-04 16:25:00,36.0,21.4,29.90,WSW,248,3.0,5.0,55,0.00,,,0.00,Wunderground v.1.15,2013-01-04 21:25:00,
2013-01-04 16:35:00,35.5,21.3,29.91,SSW,202,2.0,3.0,56,0.00,,,0.00,Wunderground v.1.15,2013-01-04 21:35:00,
2013-01-04 16:45:00,35.5,21.8,29.91,WSW,241,3.0,3.0,57,0.00,,,0.00,Wunderground v.1.15,2013-01-04 21:45:00,
2013-01-04 16:55:00,35.0,21.7,29.91,WSW,242,2.0,3.0,58,0.00,,,0.00,Wunderground v.1.15,2013-01-04 21:55:00,
2013-01-04 17:05:00,34.7,21.4,29.91,West,273,2.0,2.0,58,0.00,,,0.00,Wunderground v.1.15,2013-01-04 22:05:00,
2013-01-04 17:15:00,34.4,21.9,29.91,WSW,247,2.0,2.0,60,0.00,,,0.00,Wunderground v.1.15,2013-01-04 22:15:00,
2013-01-04 17:20:00,34.4,21.5,29.92,West,277,2.0,4.0,59,0.00,,,0.00,Wunderground v.1.15,2013-01-04 22:20:00,
2013-01-04 17:25:00,34.6,21.7,29.92,WSW,242,2.0,4.0,59,0.00,,,0.00,Wunderground v.1.15,2013-01-04 22:25:00,
2013-01-04 17:35:00,34.7,21.4,29.92,WSW,251,2.0,4.0,58,0.00,,,0.00,Wunderground v.1.15,2013-01-04 22:35:00,
2013-01-04 17:45:00,34.7,21.4,29.92,West,261,3.0,3.0,58,0.00,,,0.00,Wunderground v.1.15,2013-01-04 22:45:00,
2013-01-04 17:55:00,34.7,21.4,29.92,WSW,250,2.0,4.0,58,0.00,,,0.00,Wunderground v.1.15,2013-01-04 22:55:00,
2013-01-04 18:05:00,34.6,21.7,29.93,West,278,2.0,2.0,59,0.00,,,0.00,Wunderground v.1.15,2013-01-04 23:05:00,
2013-01-04 18:15:00,34.6,21.7,29.93,WSW,247,2.0,2.0,59,0.00,,,0.00,Wunderground v.1.15,2013-01-04 23:15:00,
2013-01-04 18:25:00,34.3,21.4,29.93,WSW,244,2.0,3.0,59,0.00,,,0.00,Wunderground v.1.15,2013-01-04 23:25:00,
2013-01-04 18:35:00,34.1,21.7,29.93,WSW,248,2.0,2.0,60,0.00,,,0.00,Wunderground v.1.15,2013-01-04 23:35:00,
2013-01-04 18:45:00,34.0,21.6,29.93,WSW,248,1.0,2.0,60,0.00,,,0.00,Wunderground v.1.15,2013-01-04 23:45:00,
2013-01-04 18:55:00,34.3,21.4,29.93,SW,224,2.0,3.0,59,0.00,,,0.00,Wunderground v.1.15,2013-01-04 23:55:00,
2013-01-04 19:05:00,34.4,21.5,29.93,SW,229,3.0,3.0,59,0.00,,,0.00,Wunderground v.1.15,2013-01-05 00:05:00,
2013-01-04 19:15:00,34.3,21.4,29.93,WNW,284,2.0,2.0,59,0.00,,,0.00,Wunderground v.1.15,2013-01-05 00:15:00,
2013-01-04 19:25:00,34.4,21.1,29.93,West,281,2.0,2.0,58,0.00,,,0.00,Wunderground v.1.15,2013-01-05 00:25:00,
2013-01-04 19:35:00,34.0,21.6,29.94,SW,224,1.0,2.0,60,0.00,,,0.00,Wunderground v.1.15,2013-01-05 00:35:00,
2013-01-04 19:45:00,34.1,21.3,29.94,WSW,249,2.0,2.0,59,0.00,,,0.00,Wunderground v.1.15,2013-01-05 00:45:00,
2013-01-04 19:55:00,34.0,21.6,29.93,West,269,2.0,5.0,60,0.00,,,0.00,Wunderground v.1.15,2013-01-05 00:55:00,
2013-01-04 20:06:00,34.1,21.3,29.93,WSW,250,2.0,3.0,59,0.00,,,0.00,Wunderground v.1.15,2013-01-05 01:06:00,
2013-01-04 20:15:00,34.1,21.3,29.93,West,262,2.0,4.0,59,0.00,,,0.00,Wunderground v.1.15,2013-01-05 01:15:00,
2013-01-04 20:25:00,34.1,21.3,29.93,WSW,248,2.0,2.0,59,0.00,,,0.00,Wunderground v.1.15,2013-01-05 01:25:00,
2013-01-04 20:35:00,34.1,21.7,29.93,WSW,241,2.0,2.0,60,0.00,,,0.00,Wunderground v.1.15,2013-01-05 01:35:00,
2013-01-04 20:45:00,33.8,21.4,29.93,NW,313,1.0,2.0,60,0.00,,,0.00,Wunderground v.1.15,2013-01-05 01:45:00,
2013-01-04 20:55:00,33.5,21.5,29.93,West,272,2.0,3.0,61,0.00,,,0.00,Wunderground v.1.15,2013-01-05 01:55:00,
2013-01-04 21:10:00,33.1,21.1,29.93,West,272,1.0,2.0,61,0.00,,,0.00,Wunderground v.1.15,2013-01-05 02:10:00,
2013-01-04 21:15:00,32.8,21.2,29.93,West,272,1.0,2.0,62,0.00,,,0.00,Wunderground v.1.15,2013-01-05 02:15:00,
2013-01-04 21:25:00,32.7,21.5,29.93,West,281,1.0,2.0,63,0.00,,,0.00,Wunderground v.1.15,2013-01-05 02:25:00,
2013-01-04 21:35:00,32.7,21.1,29.94,West,262,2.0,4.0,62,0.00,,,0.00,Wunderground v.1.15,2013-01-05 02:35:00,
2013-01-04 21:45:00,32.5,21.3,29.94,West,261,1.0,2.0,63,0.00,,,0.00,Wunderground v.1.15,2013-01-05 02:45:00,
2013-01-04 21:55:00,31.8,21.0,29.94,West,261,1.0,1.0,64,0.00,,,0.00,Wunderground v.1.15,2013-01-05 02:55:00,
2013-01-04 22:05:00,31.5,20.7,29.94,West,261,0.0,1.0,64,0.00,,,0.00,Wunderground v.1.15,2013-01-05 03:05:00,
2013-01-04 22:15:00,31.0,21.0,29.94,West,261,0.0,1.0,66,0.00,,,0.00,Wunderground v.1.15,2013-01-05 03:15:00,
2013-01-04 22:25:00,30.6,20.6,29.94,West,261,0.0,0.0,66,0.00,,,0.00,Wunderground v.1.15,2013-01-05 03:25:00,
2013-01-04 22:35:00,30.0,20.7,29.96,West,261,0.0,0.0,68,0.00,,,0.00,Wunderground v.1.15,2013-01-05 03:35:00,
2013-01-04 22:45:00,29.7,20.8,29.96,West,261,0.0,2.0,69,0.00,,,0.00,Wunderground v.1.15,2013-01-05 03:45:00,
2013-01-04 22:55:00,29.5,20.6,29.96,West,261,0.0,2.0,69,0.00,,,0.00,Wunderground v.1.15,2013-01-05 03:55:00,
2013-01-04 23:05:00,29.5,20.6,29.96,WNW,292,1.0,1.0,69,0.00,,,0.00,Wunderground v.1.15,2013-01-05 04:05:00,
2013-01-04 23:15:00,29.5,20.6,29.96,WNW,292,0.0,0.0,69,0.00,,,0.00,Wunderground v.1.15,2013-01-05 04:15:00,
2013-01-04 23:25:00,29.5,20.6,29.96,WNW,284,1.0,1.0,69,0.00,,,0.00,Wunderground v.1.15,2013-01-05 04:25:00,
2013-01-04 23:35:00,29.4,20.5,29.96,WNW,284,1.0,1.0,69,0.00,,,0.00,Wunderground v.1.15,2013-01-05 04:35:00,
2013-01-04 23:45:00,29.5,20.6,29.96,WNW,284,0.0,1.0,69,0.00,,,0.00,Wunderground v.1.15,2013-01-05 04:45:00,
2013-01-04 23:55:00,29.4,20.5,29.96,WNW,284,0.0,0.0,69,0.00,,,0.00,Wunderground v.1.15,2013-01-05 04:55:00,